Temp
12 12 12 12 12 12 12 13 14 14 14 15 16 16 16 15 15 14 13 13 12 11 11 11 12 12 12 12 12 13 12 12 12 12 12 11 11 11 11 11 11 11 11 11
13 12 11 11 11 12 12 13 13 14 14 14 15 16 17 17 16 14 13 14 12 11 11 11 12 12 12 12 12 12 12 12 12 12 12 12 12 11 11 11 11 11 11 11
12 12 11 11 12 13 13 13 12 12 14 14 14 16 16 16 15 15 13 13 13 12 13 11 11 13 13 12 12 13 13 13 12 12 11 11 11 11 10 10 10 10 10 10
12 11 11 12 12 12 13 11 11 12 14 14 14 15 16 17 16 15 14 12 11 12 12 13 11 12 13 13 13 13 13 13 13 12 11 11 11 11 11 11 10 10 9 10
12 11 11 12 11 11 12 11 11 12 13 13 14 14 16 14 16 16 15 14 14 15 14 14 14 12 15 14 14 13 12 12 13 12 12 11 10 10 10 10 9 9 9 9
11 9 10 11 11 10 11 11 11 11 12 12 13 13 15 16 16 17 16 15 14 14 13 14 15 14 14 14 14 13 13 12 12 12 12 11 10 10 10 9 9 8 9 9
12 11 10 9 12 11 12 13 12 12 12 13 10 11 15 16 15 14 14 13 13 13 12 13 12 14 14 15 14 13 13 13 12 12 12 11 10 10 10 10 9 9 9 8
10 11 11 10 11 11 11 12 11 11 12 13 11 13 15 14 12 11 11 10 11 12 10 12 14 15 15 15 16 15 14 13 13 13 12 12 11 10 9 9 9 8 8 8
11 12 10 9 10 10 11 12 10 11 10 11 14 15 16 15 13 12 11 10 10 11 10 9 11 13 14 14 14 14 15 13 14 12 11 11 10 9 9 8 8 8 7 7
11 10 10 10 9 9 10 10 11 11 11 11 14 13 14 15 15 13 12 11 10 10 11 11 10 9 9 12 13 14 13 12 11 11 10 10 10 9 8 8 8 7 7 6
10 10 12 10 11 11 10 11 10 10 11 12 12 14 15 13 13 12 12 9 9 9 9 10 10 10 9 9 10 11 11 11 9 10 10 10 10 8 8 7 7 7 6 6
10 10 10 12 9 9 9 11 12 11 12 11 10 12 16 15 12 11 12 11 9 10 10 10 10 8 7 7 8 8 8 9 10 10 9 9 8 8 7 7 7 6 5 5
10 10 10 13 10 8 9 9 10 9 9 10 11 13 12 12 12 12 12 12 9 8 9 9 9 8 8 7 7 7 8 9 9 9 8 8 7 6 7 6 6 5 5 4
9 9 10 11 13 11 11 11 9 10 9 11 12 12 14 15 14 14 13 12 10 8 7 8 7 7 7 7 6 7 7 8 8 8 7 7 6 6 6 5 5 4 3 3
9 9 9 8 10 10 9 9 10 9 9 9 11 12 13 14 14 13 11 10 9 8 6 7 6 7 7 7 7 7 7 7 7 7 6 6 6 5 5 4 4 3 3 3
7 9 8 7 10 9 8 9 10 9 9 9 9 9 12 11 11 9 10 9 8 7 6 6 6 6 7 7 6 6 6 6 6 6 6 5 5 4 4 3 3 3 2 2
8 8 7 9 8 9 10 12 12 10 9 9 9 11 10 10 10 10 9 8 8 8 7 6 7 7 6 6 7 6 6 6 5 5 5 5 4 4 3 3 2 2 2 2
9 7 8 8 9 9 13 10 11 11 11 9 9 10 10 9 8 8 9 9 8 8 8 6 6 6 6 6 5 5 5 5 5 4 4 4 3 3 2 2 2 2 1 1
6 8 8 8 9 11 11 9 9 9 12 12 10 10 9 8 7 10 11 11 10 10 8 6 7 7 6 6 6 5 5 4 4 4 3 3 2 2 2 1 1 0 0 0
4 6 7 6 6 9 13 9 8 9 11 11 9 11 10 8 11 12 11 11 10 10 9 8 6 6 6 5 5 4 4 4 3 3 3 2 2 2 1 1 -0 -2 0 0
4 4 5 6 7 9 10 8 7 9 12 9 9 10 9 10 12 12 11 11 10 10 9 8 7 6 5 5 4 4 4 3 3 2 2 1 1 1 0 -1 -1 -0 -0 -0
9 6 5 6 6 6 10 6 9 13 10 10 12 11 8 10 11 11 10 10 10 9 8 7 6 5 5 4 4 3 3 3 2 2 1 1 0 0 0 -1 -0 -0 -1 -1
7 9 10 8 10 10 7 10 10 11 9 11 11 11 11 10 9 11 10 9 9 8 7 6 5 5 4 4 3 3 3 2 1 1 0 0 -0 -1 -2 -1 -1 -1 -1 -2
8 8 7 9 10 10 10 9 9 9 8 9 9 9 9 8 9 9 9 8 8 7 7 5 4 4 4 3 3 2 2 1 1 0 -0 -1 -1 -3 -2 -1 -2 -2 -2 -2
7 7 7 8 9 9 9 9 9 9 8 7 8 8 8 8 8 9 8 8 8 7 6 5 4 3 3 2 2 2 1 0 -0 -0 -1 -2 -3 -3 -2 -2 -2 -3 -3 -3
6 6 6 6 8 8 8 7 7 6 6 6 6 6 7 7 7 8 8 8 7 6 6 5 3 3 2 2 1 1 0 -0 -1 -2 -3 -3 -4 -4 -3 -3 -3 -3 -3 -4
Height
1508 1505 1503 1502 1501 1500 1498 1493 1488 1487 1489 1486 1483 1482 1482 1483 1485 1488 1492 1498 1506 1508 1507 1508 1511 1514 1517 1520 1521 1523 1526 1528 1531 1533 1536 1538 1540 1542 1544 1545 1546 1547 1548 1549
1507 1507 1508 1507 1503 1499 1496 1493 1491 1489 1489 1486 1485 1481 1477 1481 1482 1484 1486 1489 1503 1506 1506 1505 1508 1510 1512 1514 1517 1521 1523 1525 1528 1531 1534 1536 1538 1540 1542 1543 1544 1545 1548 1548
1511 1511 1509 1506 1501 1497 1497 1495 1496 1496 1489 1487 1484 1479 1477 1477 1479 1481 1483 1485 1496 1500 1506 1503 1505 1504 1507 1510 1513 1516 1519 1522 1525 1528 1531 1534 1536 1538 1540 1541 1543 1544 1546 1546
1511 1512 1510 1506 1504 1503 1497 1501 1500 1495 1489 1487 1488 1480 1475 1471 1474 1476 1479 1484 1483 1490 1498 1499 1502 1501 1501 1504 1508 1511 1515 1519 1521 1524 1528 1530 1534 1535 1537 1539 1541 1542 1544 1543
1514 1511 1510 1507 1509 1507 1502 1504 1500 1497 1492 1492 1486 1489 1470 1475 1470 1470 1472 1475 1480 1485 1486 1491 1494 1496 1494 1497 1500 1506 1510 1514 1517 1520 1524 1528 1531 1534 1535 1537 1539 1540 1542 1542
1515 1515 1514 1511 1510 1509 1507 1503 1500 1499 1494 1496 1490 1491 1472 1469 1468 1464 1469 1472 1472 1475 1479 1488 1486 1490 1494 1496 1496 1500 1504 1508 1512 1515 1519 1523 1527 1529 1532 1535 1536 1538 1539 1540
1513 1513 1513 1513 1507 1506 1503 1499 1500 1500 1498 1492 1498 1497 1473 1466 1468 1469 1471 1473 1473 1475 1478 1478 1482 1482 1485 1488 1490 1492 1497 1501 1505 1509 1513 1517 1522 1526 1529 1532 1533 1535 1536 1537
1521 1514 1511 1513 1511 1509 1507 1506 1506 1507 1499 1489 1497 1484 1468 1467 1468 1467 1465 1466 1470 1468 1470 1472 1471 1475 1477 1480 1486 1488 1490 1494 1499 1502 1505 1510 1514 1521 1525 1528 1531 1532 1534 1535
1521 1513 1514 1515 1514 1514 1508 1505 1512 1504 1505 1499 1478 1472 1464 1464 1466 1465 1464 1462 1461 1463 1467 1468 1468 1468 1469 1474 1478 1480 1481 1487 1492 1497 1501 1503 1508 1513 1520 1525 1528 1530 1531 1533
1525 1522 1514 1514 1515 1515 1511 1513 1506 1505 1504 1497 1476 1477 1470 1461 1463 1463 1463 1461 1458 1458 1458 1456 1457 1461 1464 1467 1471 1472 1474 1477 1482 1487 1495 1499 1502 1510 1515 1519 1523 1527 1529 1532
1527 1527 1512 1514 1510 1507 1510 1507 1510 1512 1504 1495 1484 1470 1461 1464 1465 1463 1462 1462 1459 1455 1454 1453 1452 1451 1455 1459 1463 1465 1468 1471 1481 1484 1489 1494 1498 1505 1512 1515 1518 1523 1527 1530
1527 1525 1520 1506 1511 1513 1512 1505 1503 1502 1498 1499 1502 1474 1457 1459 1463 1463 1461 1460 1459 1456 1453 1449 1449 1450 1452 1455 1458 1459 1462 1467 1472 1480 1485 1491 1496 1501 1507 1510 1514 1519 1524 1527
1527 1522 1518 1501 1511 1512 1510 1506 1504 1505 1506 1496 1493 1466 1461 1462 1461 1459 1457 1456 1456 1454 1452 1452 1450 1447 1447 1448 1451 1453 1457 1463 1469 1475 1481 1487 1493 1499 1503 1507 1512 1516 1520 1523
1525 1522 1514 1509 1497 1503 1501 1499 1502 1501 1498 1483 1474 1463 1452 1455 1454 1455 1454 1453 1451 1450 1449 1448 1448 1446 1445 1447 1449 1452 1457 1462 1467 1474 1480 1484 1490 1495 1500 1505 1510 1513 1517 1521
1522 1515 1514 1508 1501 1502 1497 1492 1492 1495 1486 1486 1460 1463 1446 1453 1453 1451 1451 1449 1446 1444 1444 1444 1447 1446 1445 1445 1447 1452 1456 1462 1467 1472 1477 1483 1488 1493 1498 1503 1507 1512 1515 1519
1521 1511 1513 1506 1497 1496 1496 1482 1481 1482 1478 1476 1468 1463 1455 1452 1451 1449 1447 1446 1443 1442 1441 1442 1444 1446 1447 1447 1449 1452 1457 1461 1467 1471 1476 1481 1486 1491 1496 1501 1506 1510 1513 1517
1514 1510 1510 1497 1499 1495 1484 1464 1463 1467 1469 1466 1462 1451 1452 1450 1448 1445 1443 1442 1440 1439 1440 1440 1440 1443 1446 1448 1450 1452 1456 1461 1466 1470 1474 1480 1485 1490 1495 1499 1504 1508 1512 1514
1502 1509 1506 1495 1494 1488 1458 1463 1460 1460 1456 1458 1454 1449 1449 1448 1446 1442 1439 1438 1437 1436 1434 1435 1437 1439 1443 1446 1450 1452 1455 1460 1464 1469 1473 1479 1484 1488 1493 1498 1502 1507 1509 1512
1502 1502 1497 1493 1480 1466 1461 1456 1458 1457 1446 1444 1444 1445 1445 1445 1444 1439 1437 1435 1434 1432 1431 1430 1432 1435 1439 1443 1447 1451 1454 1458 1463 1467 1472 1476 1481 1486 1492 1497 1501 1504 1507 1509
1502 1501 1498 1494 1490 1465 1448 1454 1455 1454 1447 1438 1440 1440 1442 1444 1440 1437 1436 1435 1433 1431 1429 1428 1430 1432 1436 1439 1443 1447 1450 1455 1460 1465 1470 1475 1481 1486 1490 1495 1498 1501 1504 1505
1495 1498 1494 1487 1479 1460 1451 1451 1454 1456 1440 1436 1439 1438 1438 1439 1436 1434 1433 1432 1431 1429 1427 1427 1427 1430 1433 1436 1440 1444 1448 1453 1458 1464 1469 1474 1480 1484 1488 1493 1496 1499 1500 1501
1471 1480 1484 1482 1479 1466 1445 1453 1450 1435 1433 1434 1429 1429 1433 1431 1432 1431 1429 1428 1426 1426 1424 1424 1424 1426 1430 1433 1437 1441 1446 1450 1457 1462 1467 1473 1478 1482 1487 1491 1494 1495 1496 1497
1469 1461 1455 1461 1444 1441 1443 1438 1437 1434 1433 1432 1430 1429 1428 1428 1426 1424 1423 1423 1421 1420 1421 1420 1421 1423 1426 1430 1434 1438 1442 1449 1455 1460 1466 1471 1476 1480 1485 1489 1491 1492 1493 1493
1459 1460 1457 1452 1437 1437 1436 1435 1434 1432 1430 1429 1428 1425 1421 1421 1420 1418 1417 1416 1415 1415 1415 1416 1417 1419 1422 1426 1432 1437 1442 1447 1453 1458 1464 1470 1474 1478 1483 1485 1486 1488 1489 1489
1460 1458 1453 1439 1437 1435 1433 1432 1430 1427 1426 1423 1421 1419 1416 1414 1412 1411 1410 1409 1408 1408 1408 1409 1411 1414 1418 1423 1428 1434 1439 1445 1452 1458 1463 1467 1471 1477 1479 1481 1482 1483 1484 1484
1456 1447 1443 1430 1433 1430 1426 1427 1425 1422 1419 1417 1414 1411 1409 1407 1405 1403 1401 1402 1402 1402 1401 1402 1405 1409 1413 1418 1424 1430 1437 1443 1449 1454 1459 1464 1471 1474 1475 1477 1478 1478 1479 1479
Wind_Speed
6 6 6 5 4 2 3 2 3 4 4 2 6 9 3 8 15 14 24 16 7 13 16 20 26 28 27 26 26 26 25 23 23 22 20 19 17 16 15 14 13 12 11 11
1 11 9 5 4 3 2 3 4 0 5 3 1 7 10 8 12 23 23 20 21 13 12 18 24 28 31 28 27 27 26 25 24 23 21 19 18 18 17 15 14 13 12 11
4 6 9 4 4 4 5 6 6 4 7 1 5 11 10 6 9 16 24 32 33 32 23 14 23 29 30 32 32 30 29 27 25 23 22 20 18 18 18 17 15 13 13 11
2 5 6 5 3 7 2 4 5 5 6 3 3 4 5 12 10 11 25 34 33 33 37 19 21 29 32 34 33 32 31 28 26 25 24 22 21 21 19 17 16 15 14 12
5 7 6 4 4 6 4 6 3 3 3 4 3 5 3 3 10 13 18 23 28 32 22 30 26 30 29 31 33 34 32 31 28 26 25 23 22 21 18 18 17 16 14 13
3 3 2 4 5 3 6 5 3 1 2 3 2 4 4 4 8 7 14 24 28 36 31 31 25 29 29 27 32 34 34 35 31 27 26 25 25 22 19 19 19 17 15 15
5 1 1 2 5 2 4 4 2 2 2 3 2 4 8 12 6 6 4 4 13 18 30 43 40 31 27 33 35 35 37 36 34 30 29 27 25 22 21 19 19 19 18 16
6 3 2 2 2 3 4 4 3 4 3 5 3 6 2 1 4 7 8 5 8 10 15 30 41 47 32 44 30 37 37 38 34 34 33 30 28 25 22 20 20 19 17 16
5 4 2 1 2 3 2 1 3 5 2 4 5 6 10 2 1 3 6 9 8 10 9 14 25 36 42 46 44 41 37 38 31 42 38 34 29 27 24 22 20 19 19 18
1 6 1 2 2 2 2 1 3 1 4 5 5 6 8 4 4 8 7 9 10 10 11 12 12 20 26 39 40 40 42 48 49 47 39 34 29 27 25 23 21 20 19 18
2 2 1 3 2 3 2 2 2 3 3 6 8 5 3 6 2 5 7 4 7 11 11 9 10 14 21 26 33 39 42 45 42 41 40 34 29 27 25 23 21 20 19 18
2 2 5 5 1 1 3 4 4 3 4 3 4 12 13 10 3 4 8 9 5 8 11 11 10 10 15 20 24 28 32 35 38 39 36 32 28 26 26 23 21 20 19 18
3 2 5 5 3 3 5 4 5 3 2 12 10 10 2 1 7 11 17 11 8 9 10 9 8 10 11 14 17 21 28 32 35 37 34 29 28 27 24 22 22 21 20 18
5 3 9 9 15 4 11 11 8 8 8 15 18 26 26 21 20 20 19 23 18 12 11 9 9 9 11 15 18 22 27 30 34 33 31 29 27 25 23 23 22 21 19 16
4 6 7 14 18 14 18 21 16 17 20 12 23 20 27 19 18 27 26 20 15 14 14 13 12 13 13 17 21 24 29 32 32 30 28 26 26 25 25 24 23 20 18 16
3 5 2 10 12 13 13 20 16 17 19 20 23 24 24 27 14 10 14 14 14 13 15 15 16 16 18 21 24 27 29 29 27 27 27 28 28 27 25 23 21 19 17 14
6 5 3 10 5 12 13 17 8 5 8 8 9 9 6 8 10 15 12 10 12 12 14 18 21 21 21 23 25 27 28 28 29 29 29 29 28 26 24 23 21 19 15 11
9 5 4 8 8 6 3 4 6 12 12 15 15 14 13 14 14 12 6 10 13 14 15 19 22 24 25 25 27 29 30 31 31 31 30 28 27 26 25 23 20 16 11 7
15 10 5 5 9 12 14 4 6 7 8 12 18 13 13 7 7 5 4 7 10 12 13 15 22 24 25 25 26 27 29 29 30 30 30 30 28 26 24 21 18 11 6 7
6 11 8 4 6 7 4 1 2 3 10 2 11 10 10 5 4 4 6 9 11 12 11 12 20 25 26 28 28 29 31 32 33 33 31 29 27 25 23 18 11 8 11 10
5 4 13 13 8 7 11 5 6 4 3 6 11 14 12 6 9 8 10 12 13 13 12 14 22 26 27 29 30 31 32 34 34 32 30 29 27 23 17 12 11 13 10 9
11 7 6 6 6 10 13 5 7 7 4 10 18 26 16 17 19 20 19 18 18 17 14 16 23 28 29 30 32 33 33 34 33 31 30 29 26 21 17 12 13 11 9 9
7 11 11 10 9 5 13 10 16 18 9 12 12 18 25 30 26 25 24 24 20 18 17 17 24 29 30 31 32 34 36 34 33 32 30 27 22 18 13 13 13 11 9 8
15 19 10 17 17 20 24 22 25 28 24 29 32 32 25 25 28 27 29 26 22 19 18 19 25 29 31 33 33 34 34 34 34 32 28 24 20 16 14 15 11 9 9 8
14 14 15 20 20 29 31 30 30 26 25 26 29 30 28 25 26 29 30 28 25 23 20 22 26 31 33 34 35 34 35 36 34 31 27 23 18 16 15 12 11 9 8 8
20 22 15 19 28 26 30 30 27 30 34 34 29 32 33 31 30 30 31 29 28 26 24 24 27 32 35 37 37 36 36 35 33 31 25 19 17 16 15 12 9 8 9 10
Wind_Direction
8 37 30 7 11 360 321 295 12 58 12 264 232 254 253 211 196 192 189 214 259 234 232 221 215 212 210 209 208 208 207 204 203 201 199 198 198 193 192 191 189 188 189 187
28 30 355 304 293 311 5 5 19 60 10 275 241 251 250 216 215 202 193 204 234 274 231 218 215 213 213 212 211 212 211 211 210 210 209 208 203 200 200 197 194 193 195 192
15 5 332 316 359 357 46 23 12 336 323 242 295 254 241 221 215 208 205 209 230 251 254 234 218 215 213 214 213 214 215 214 214 214 212 211 210 208 206 203 202 201 197 196
339 340 346 344 17 338 33 5 317 315 325 308 340 282 229 220 216 210 198 199 209 231 243 234 235 219 216 217 217 216 215 217 216 217 216 217 220 214 213 212 207 204 201 200
21 345 359 20 357 332 355 333 331 318 321 303 201 273 240 200 234 217 215 218 200 212 245 260 265 240 223 218 219 216 216 216 217 217 218 219 221 223 221 213 210 205 204 205
305 308 299 332 309 290 309 279 276 282 282 271 3 274 267 236 247 249 216 213 217 209 205 233 260 246 245 236 224 216 215 217 214 217 219 222 221 222 223 220 215 209 210 212
332 354 304 309 309 189 331 321 299 250 209 271 74 271 270 276 274 280 289 182 222 212 212 217 222 238 241 242 229 217 214 216 214 214 220 219 220 223 226 228 220 218 216 211
341 325 10 19 1 317 352 327 320 309 304 315 150 242 232 160 312 287 294 272 250 243 215 216 223 224 229 238 227 223 214 216 214 217 216 216 217 219 222 222 220 219 217 214
339 298 333 309 334 309 41 325 356 291 235 267 246 254 272 153 112 18 319 309 287 274 250 219 218 222 226 229 222 219 211 208 230 222 213 212 212 215 219 216 216 217 214 215
87 292 159 326 230 107 295 46 269 217 294 294 278 278 250 292 353 1 11 323 305 299 293 280 249 222 220 226 230 225 214 213 213 211 210 210 207 211 211 212 218 214 214 210
180 257 268 267 217 317 188 197 194 289 262 289 300 283 223 223 268 335 344 331 290 308 304 292 267 244 225 225 222 221 216 216 213 210 205 205 204 204 209 207 206 210 209 207
174 283 275 307 79 2 298 279 239 250 256 244 296 279 271 258 249 314 310 311 253 284 299 300 279 248 226 218 217 217 215 212 212 206 201 200 198 200 200 201 202 200 200 200
172 230 298 291 155 152 243 209 231 273 316 257 266 261 89 269 273 272 300 312 280 273 281 270 258 247 229 215 205 204 204 208 201 196 193 192 194 195 196 196 193 193 195 197
179 234 241 267 290 315 274 260 228 235 266 267 252 274 269 278 282 292 298 296 283 260 256 244 235 214 199 199 196 194 195 192 188 189 188 189 189 190 190 188 190 189 189 191
221 253 238 251 268 275 267 275 266 235 244 252 274 268 281 284 289 292 294 291 277 262 246 229 220 204 194 186 185 186 183 181 184 184 184 184 185 185 184 185 185 184 185 186
199 262 260 290 278 274 269 275 260 249 255 257 264 274 279 283 283 280 288 286 270 259 239 222 215 207 193 185 179 178 180 181 182 184 184 184 183 182 182 181 182 183 183 186
205 236 239 267 329 310 277 258 218 205 220 226 241 254 321 290 279 289 294 284 279 263 240 228 217 209 201 194 189 186 185 184 184 185 184 183 181 180 180 180 180 180 182 186
228 215 233 278 288 245 312 300 262 261 253 219 251 264 276 275 288 292 292 285 287 282 267 236 218 209 205 199 193 192 189 188 187 184 182 181 181 181 179 177 177 178 181 203
227 219 241 252 239 296 292 216 188 198 287 246 231 249 259 261 296 282 305 320 313 303 286 241 219 214 209 205 202 197 191 189 186 185 184 183 183 180 178 176 176 181 202 236
193 229 227 200 248 274 340 87 166 159 287 248 196 215 217 187 305 311 287 307 312 310 298 238 214 209 205 202 198 194 191 189 188 188 186 184 181 180 177 173 186 210 220 232
163 190 220 234 266 272 267 198 145 241 288 168 206 231 200 215 271 281 280 282 287 291 280 238 214 212 207 203 198 194 193 191 190 187 185 181 177 178 178 193 210 211 226 243
212 196 198 212 246 273 218 122 211 254 283 295 228 226 225 269 286 288 272 276 282 282 267 239 217 210 209 205 201 197 194 193 190 186 182 179 180 179 176 198 211 223 236 257
254 228 258 209 241 287 196 242 244 265 282 294 262 262 283 273 272 281 275 275 271 272 263 241 220 211 209 206 204 198 197 192 186 183 180 179 179 176 192 212 222 229 249 266
267 262 258 272 259 260 264 266 272 279 277 287 288 281 276 274 277 279 280 274 269 266 254 236 219 211 205 201 201 202 194 188 185 181 180 179 174 195 205 217 223 239 252 269
278 297 277 270 279 281 275 280 288 295 299 300 299 296 290 278 278 286 283 271 265 260 249 233 220 210 205 199 197 196 194 186 182 182 179 176 196 198 214 220 231 244 265 285
267 267 261 268 277 274 280 284 289 296 291 293 289 287 284 282 284 285 273 266 267 254 241 227 217 212 204 199 195 192 189 186 184 178 178 190 193 209 218 226 236 255 274 286